Time,TemperatureF,DewpointF,PressureIn,WindDirection,WindDirectionDegrees,WindSpeedMPH,WindSpeedGustMPH,Humidity,HourlyPrecipIn,Conditions,Clouds,dailyrainin,SoftwareType,DateUTC
2013-06-25 00:02:00,84.6,46.9,29.99,WSW,250,2.0,7.0,27,0.00,,,0.00,meteohub,2013-06-25 06:02:00,
2013-06-25 00:07:00,84.7,47.1,29.99,WSW,239,6.0,7.0,27,0.00,,,0.00,meteohub,2013-06-25 06:07:00,
2013-06-25 00:12:00,84.9,47.1,29.99,SW,223,4.0,7.0,27,0.00,,,0.00,meteohub,2013-06-25 06:12:00,
2013-06-25 00:17:00,84.6,46.9,29.99,SW,221,4.0,7.0,27,0.00,,,0.00,meteohub,2013-06-25 06:17:00,
2013-06-25 00:22:00,84.2,46.6,29.99,SW,217,6.0,8.0,27,0.00,,,0.00,meteohub,2013-06-25 06:22:00,
2013-06-25 00:27:00,83.8,47.3,29.99,WSW,244,8.0,9.0,28,0.00,,,0.00,meteohub,2013-06-25 06:27:00,
2013-06-25 00:32:00,83.8,46.2,29.99,WSW,241,3.0,9.0,27,0.00,,,0.00,meteohub,2013-06-25 06:32:00,
2013-06-25 00:37:00,83.8,46.2,29.99,WSW,257,4.0,9.0,27,0.00,,,0.00,meteohub,2013-06-25 06:37:00,
2013-06-25 00:42:00,83.8,45.3,29.99,West,261,5.0,9.0,26,0.00,,,0.00,meteohub,2013-06-25 06:42:00,
2013-06-25 00:47:00,83.8,45.3,29.99,WSW,246,6.0,9.0,26,0.00,,,0.00,meteohub,2013-06-25 06:47:00,
2013-06-25 00:52:00,83.7,45.1,29.99,WSW,245,6.0,8.0,26,0.00,,,0.00,meteohub,2013-06-25 06:52:00,
2013-06-25 00:57:00,83.1,44.6,29.99,WSW,243,0.0,8.0,26,0.00,,,0.00,meteohub,2013-06-25 06:57:00,
2013-06-25 01:02:00,82.8,44.4,29.99,WSW,240,3.0,7.0,26,0.00,,,0.00,meteohub,2013-06-25 07:02:00,
2013-06-25 01:07:00,82.6,44.2,29.99,WSW,240,2.0,7.0,26,0.00,,,0.00,meteohub,2013-06-25 07:07:00,
2013-06-25 01:12:00,82.2,43.9,30.00,WSW,244,4.0,6.0,26,0.00,,,0.00,meteohub,2013-06-25 07:12:00,
2013-06-25 01:17:00,82.0,43.7,30.00,WSW,242,4.0,6.0,26,0.00,,,0.00,meteohub,2013-06-25 07:17:00,
2013-06-25 01:22:00,81.9,43.7,30.00,WSW,240,4.0,6.0,26,0.00,,,0.00,meteohub,2013-06-25 07:22:00,
2013-06-25 01:27:00,81.5,43.3,30.00,SW,234,5.0,6.0,26,0.00,,,0.00,meteohub,2013-06-25 07:27:00,
2013-06-25 01:32:00,81.1,43.0,30.00,WSW,238,3.0,8.0,26,0.00,,,0.00,meteohub,2013-06-25 07:32:00,
2013-06-25 01:37:00,81.0,42.8,30.00,WSW,238,3.0,8.0,26,0.00,,,0.00,meteohub,2013-06-25 07:37:00,
2013-06-25 01:42:00,80.6,42.6,30.00,WSW,258,4.0,8.0,26,0.00,,,0.00,meteohub,2013-06-25 07:42:00,
2013-06-25 01:47:00,80.2,42.3,30.00,WSW,243,2.0,7.0,26,0.00,,,0.00,meteohub,2013-06-25 07:47:00,
2013-06-25 01:52:00,79.9,41.9,30.00,WSW,249,1.0,6.0,26,0.00,,,0.00,meteohub,2013-06-25 07:52:00,
2013-06-25 01:57:00,79.3,41.5,30.00,WSW,239,3.0,6.0,26,0.00,,,0.00,meteohub,2013-06-25 07:57:00,
2013-06-25 02:02:00,78.6,41.9,30.00,WSW,238,5.0,6.0,27,0.00,,,0.00,meteohub,2013-06-25 08:02:00,
2013-06-25 02:07:00,78.3,41.5,30.00,SW,232,2.0,6.0,27,0.00,,,0.00,meteohub,2013-06-25 08:07:00,
2013-06-25 02:12:00,78.1,41.4,30.01,SW,229,4.0,6.0,27,0.00,,,0.00,meteohub,2013-06-25 08:12:00,
2013-06-25 02:17:00,78.1,41.4,30.00,WSW,242,0.0,5.0,27,0.00,,,0.00,meteohub,2013-06-25 08:17:00,
2013-06-25 02:22:00,78.1,40.5,30.00,SW,231,4.0,5.0,26,0.00,,,0.00,meteohub,2013-06-25 08:22:00,
2013-06-25 02:27:00,78.1,41.4,30.00,WSW,244,5.0,6.0,27,0.00,,,0.00,meteohub,2013-06-25 08:27:00,
2013-06-25 02:32:00,77.7,41.0,30.00,WSW,238,2.0,6.0,27,0.00,,,0.00,meteohub,2013-06-25 08:32:00,
2013-06-25 02:37:00,77.7,40.1,30.00,WSW,246,3.0,6.0,26,0.00,,,0.00,meteohub,2013-06-25 08:37:00,
2013-06-25 02:42:00,77.5,39.9,30.00,WSW,242,2.0,6.0,26,0.00,,,0.00,meteohub,2013-06-25 08:42:00,
2013-06-25 02:47:00,77.2,40.6,30.00,WSW,240,1.0,6.0,27,0.00,,,0.00,meteohub,2013-06-25 08:47:00,
2013-06-25 02:52:00,76.8,40.3,30.00,WSW,242,4.0,6.0,27,0.00,,,0.00,meteohub,2013-06-25 08:52:00,
2013-06-25 02:57:00,77.2,40.6,30.01,WSW,254,1.0,5.0,27,0.00,,,0.00,meteohub,2013-06-25 08:57:00,
2013-06-25 03:02:00,76.6,41.2,30.01,WSW,254,2.0,4.0,28,0.00,,,0.00,meteohub,2013-06-25 09:02:00,
2013-06-25 03:07:00,76.3,41.7,30.01,WSW,244,3.0,4.0,29,0.00,,,0.00,meteohub,2013-06-25 09:07:00,
2013-06-25 03:12:00,76.6,40.1,30.01,SSW,209,2.0,6.0,27,0.00,,,0.00,meteohub,2013-06-25 09:12:00,
2013-06-25 03:17:00,76.5,39.0,30.01,SSW,210,2.0,6.0,26,0.00,,,0.00,meteohub,2013-06-25 09:17:00,
2013-06-25 03:22:00,76.1,39.7,30.02,SSW,210,0.0,6.0,27,0.00,,,0.00,meteohub,2013-06-25 09:22:00,
2013-06-25 03:27:00,75.9,39.6,30.01,SSW,210,0.0,6.0,27,0.00,,,0.00,meteohub,2013-06-25 09:27:00,
2013-06-25 03:32:00,75.7,40.3,30.02,SSW,210,1.0,2.0,28,0.00,,,0.00,meteohub,2013-06-25 09:32:00,
2013-06-25 03:37:00,75.4,40.1,30.02,SSW,210,0.0,1.0,28,0.00,,,0.00,meteohub,2013-06-25 09:37:00,
2013-06-25 03:42:00,74.8,39.6,30.02,SSW,210,0.0,1.0,28,0.00,,,0.00,meteohub,2013-06-25 09:42:00,
2013-06-25 03:47:00,74.7,38.5,30.02,SSW,210,2.0,2.0,27,0.00,,,0.00,meteohub,2013-06-25 09:47:00,
2013-06-25 03:52:00,74.7,37.6,30.02,SSW,210,0.0,3.0,26,0.00,,,0.00,meteohub,2013-06-25 09:52:00,
2013-06-25 03:57:00,74.8,37.6,30.02,SSW,210,0.0,3.0,26,0.00,,,0.00,meteohub,2013-06-25 09:57:00,
2013-06-25 04:02:00,75.4,38.1,30.02,SSW,210,0.0,3.0,26,0.00,,,0.00,meteohub,2013-06-25 10:02:00,
2013-06-25 04:07:00,75.0,36.9,30.03,SSW,210,3.0,3.0,25,0.00,,,0.00,meteohub,2013-06-25 10:07:00,
2013-06-25 04:12:00,74.8,36.7,30.03,SSW,210,3.0,4.0,25,0.00,,,0.00,meteohub,2013-06-25 10:12:00,
2013-06-25 04:17:00,74.7,35.4,30.03,SSW,200,2.0,4.0,24,0.00,,,0.00,meteohub,2013-06-25 10:17:00,
2013-06-25 04:22:00,74.1,36.0,30.03,SSW,200,0.0,5.0,25,0.00,,,0.00,meteohub,2013-06-25 10:22:00,
2013-06-25 04:27:00,74.1,35.1,30.03,SSW,200,0.0,5.0,24,0.00,,,0.00,meteohub,2013-06-25 10:27:00,
2013-06-25 04:32:00,73.9,36.9,30.04,SSW,198,2.0,4.0,26,0.00,,,0.00,meteohub,2013-06-25 10:32:00,
2013-06-25 04:37:00,73.9,37.8,30.04,SSW,198,4.0,6.0,27,0.00,,,0.00,meteohub,2013-06-25 10:37:00,
2013-06-25 04:42:00,73.9,38.8,30.04,SSW,198,2.0,6.0,28,0.00,,,0.00,meteohub,2013-06-25 10:42:00,
2013-06-25 04:47:00,73.6,38.5,30.04,SSW,193,0.0,6.0,28,0.00,,,0.00,meteohub,2013-06-25 10:47:00,
2013-06-25 04:52:00,73.6,38.5,30.04,SSW,193,0.0,4.0,28,0.00,,,0.00,meteohub,2013-06-25 10:52:00,
2013-06-25 04:57:00,73.8,38.7,30.04,SSW,193,0.0,2.0,28,0.00,,,0.00,meteohub,2013-06-25 10:57:00,
2013-06-25 05:02:00,73.9,38.8,30.05,SSW,193,0.0,2.0,28,0.00,,,0.00,meteohub,2013-06-25 11:02:00,
2013-06-25 05:07:00,74.1,39.0,30.05,SSW,193,1.0,2.0,28,0.00,,,0.00,meteohub,2013-06-25 11:07:00,
2013-06-25 05:12:00,74.3,39.0,30.05,SSW,193,1.0,3.0,28,0.00,,,0.00,meteohub,2013-06-25 11:12:00,
2013-06-25 05:17:00,74.3,39.0,30.05,SSW,193,2.0,3.0,28,0.00,,,0.00,meteohub,2013-06-25 11:17:00,
2013-06-25 05:22:00,74.1,39.0,30.05,SSW,193,0.0,5.0,28,0.00,,,0.00,meteohub,2013-06-25 11:22:00,
2013-06-25 05:27:00,73.8,38.7,30.05,SSW,207,3.0,5.0,28,0.00,,,0.00,meteohub,2013-06-25 11:27:00,
2013-06-25 05:32:00,73.6,38.5,30.05,SSW,208,3.0,5.0,28,0.00,,,0.00,meteohub,2013-06-25 11:32:00,
2013-06-25 05:37:00,73.6,37.6,30.05,SSW,213,4.0,7.0,27,0.00,,,0.00,meteohub,2013-06-25 11:37:00,
2013-06-25 05:42:00,73.4,37.4,30.05,SSW,209,3.0,7.0,27,0.00,,,0.00,meteohub,2013-06-25 11:42:00,
2013-06-25 05:47:00,73.2,37.2,30.06,SW,223,0.0,7.0,27,0.00,,,0.00,meteohub,2013-06-25 11:47:00,
2013-06-25 05:52:00,72.9,36.9,30.06,SW,223,0.0,7.0,27,0.00,,,0.00,meteohub,2013-06-25 11:52:00,
2013-06-25 05:57:00,73.0,37.0,30.06,SW,223,1.0,6.0,27,0.00,,,0.00,meteohub,2013-06-25 11:57:00,
2013-06-25 06:02:00,72.9,36.9,30.06,SW,223,0.0,1.0,27,0.00,,,0.00,meteohub,2013-06-25 12:02:00,
2013-06-25 06:07:00,72.7,36.9,30.06,SW,223,0.0,1.0,27,0.00,,,0.00,meteohub,2013-06-25 12:07:00,
2013-06-25 06:12:00,72.3,35.6,30.06,SW,223,0.0,3.0,26,0.00,,,0.00,meteohub,2013-06-25 12:12:00,
2013-06-25 06:17:00,72.5,34.7,30.06,SW,223,0.0,3.0,25,0.00,,,0.00,meteohub,2013-06-25 12:17:00,
2013-06-25 06:22:00,72.7,33.8,30.06,SW,225,0.0,3.0,24,0.00,,,0.00,meteohub,2013-06-25 12:22:00,
2013-06-25 06:27:00,72.9,32.9,30.06,SW,232,0.0,3.0,23,0.00,,,0.00,meteohub,2013-06-25 12:27:00,
2013-06-25 06:32:00,73.0,33.1,30.06,West,259,0.0,5.0,23,0.00,,,0.00,meteohub,2013-06-25 12:32:00,
2013-06-25 06:37:00,73.4,32.2,30.06,WNW,294,0.0,5.0,22,0.00,,,0.00,meteohub,2013-06-25 12:37:00,
2013-06-25 06:42:00,73.4,33.3,30.06,WNW,294,0.0,5.0,23,0.00,,,0.00,meteohub,2013-06-25 12:42:00,
2013-06-25 06:47:00,73.4,32.2,30.07,WNW,294,0.0,4.0,22,0.00,,,0.00,meteohub,2013-06-25 12:47:00,
2013-06-25 06:52:00,73.9,31.5,30.07,NNE,22,1.0,3.0,21,0.00,,,0.00,meteohub,2013-06-25 12:52:00,
2013-06-25 06:57:00,74.1,32.9,30.07,NNE,22,2.0,4.0,22,0.00,,,0.00,meteohub,2013-06-25 12:57:00,
2013-06-25 07:02:00,73.9,32.7,30.07,NNE,22,0.0,4.0,22,0.00,,,0.00,meteohub,2013-06-25 13:02:00,
2013-06-25 07:07:00,74.1,31.6,30.07,NNE,22,0.0,4.0,21,0.00,,,0.00,meteohub,2013-06-25 13:07:00,
2013-06-25 07:12:00,74.8,33.4,30.08,NNE,22,0.0,2.0,22,0.00,,,0.00,meteohub,2013-06-25 13:12:00,
2013-06-25 07:17:00,75.0,32.4,30.08,NNE,22,1.0,2.0,21,0.00,,,0.00,meteohub,2013-06-25 13:17:00,
2013-06-25 07:22:00,75.6,31.6,30.08,NNE,22,1.0,2.0,20,0.00,,,0.00,meteohub,2013-06-25 13:22:00,
2013-06-25 07:27:00,76.1,30.9,30.08,NNE,22,2.0,2.0,19,0.00,,,0.00,meteohub,2013-06-25 13:27:00,
2013-06-25 07:32:00,76.6,30.0,30.08,WSW,246,2.0,4.0,18,0.00,,,0.00,meteohub,2013-06-25 13:32:00,
2013-06-25 07:37:00,77.2,30.4,30.08,SW,221,4.0,5.0,18,0.00,,,0.00,meteohub,2013-06-25 13:37:00,
2013-06-25 07:42:00,77.5,29.3,30.08,SW,221,2.0,6.0,17,0.00,,,0.00,meteohub,2013-06-25 13:42:00,
2013-06-25 07:47:00,78.1,31.1,30.08,SW,221,0.0,6.0,18,0.00,,,0.00,meteohub,2013-06-25 13:47:00,
2013-06-25 07:52:00,78.3,29.8,30.09,SW,221,0.0,6.0,17,0.00,,,0.00,meteohub,2013-06-25 13:52:00,
2013-06-25 07:58:00,78.6,30.2,30.09,SW,221,1.0,4.0,17,0.00,,,0.00,meteohub,2013-06-25 13:58:00,
2013-06-25 08:04:00,79.3,30.7,30.09,SW,221,1.0,4.0,17,0.00,,,0.00,meteohub,2013-06-25 14:04:00,
2013-06-25 08:10:00,79.5,30.9,30.09,SW,221,0.0,2.0,17,0.00,,,0.00,meteohub,2013-06-25 14:10:00,
2013-06-25 08:16:00,80.4,31.6,30.09,SW,221,0.0,3.0,17,0.00,,,0.00,meteohub,2013-06-25 14:16:00,
2013-06-25 08:21:00,81.7,31.1,30.09,SSE,161,3.0,3.0,16,0.00,,,0.00,meteohub,2013-06-25 14:21:00,
2013-06-25 08:27:00,82.2,33.1,30.09,SE,128,3.0,5.0,17,0.00,,,0.00,meteohub,2013-06-25 14:27:00,
2013-06-25 08:32:00,82.2,33.1,30.09,ESE,105,3.0,5.0,17,0.00,,,0.00,meteohub,2013-06-25 14:32:00,
2013-06-25 08:37:00,82.9,35.1,30.09,ESE,105,2.0,5.0,18,0.00,,,0.00,meteohub,2013-06-25 14:37:00,
2013-06-25 08:42:00,83.7,37.0,30.09,ESE,105,4.0,5.0,19,0.00,,,0.00,meteohub,2013-06-25 14:42:00,
2013-06-25 08:47:00,83.7,35.6,30.09,East,88,5.0,6.0,18,0.00,,,0.00,meteohub,2013-06-25 14:47:00,
2013-06-25 08:52:00,84.0,36.0,30.09,East,89,3.0,6.0,18,0.00,,,0.00,meteohub,2013-06-25 14:52:00,
2013-06-25 08:57:00,84.2,34.7,30.09,East,89,2.0,6.0,17,0.00,,,0.00,meteohub,2013-06-25 14:57:00,
2013-06-25 09:02:00,84.6,34.9,30.09,East,86,1.0,6.0,17,0.00,,,0.00,meteohub,2013-06-25 15:02:00,
2013-06-25 09:07:00,85.3,34.0,30.09,East,93,2.0,6.0,16,0.00,,,0.00,meteohub,2013-06-25 15:07:00,
2013-06-25 09:12:00,86.2,34.7,30.10,ESE,110,4.0,6.0,16,0.00,,,0.00,meteohub,2013-06-25 15:12:00,
2013-06-25 09:17:00,87.1,32.2,30.09,ESE,110,2.0,6.0,14,0.00,,,0.00,meteohub,2013-06-25 15:17:00,
2013-06-25 09:22:00,87.8,30.9,30.09,ENE,75,4.0,7.0,13,0.00,,,0.00,meteohub,2013-06-25 15:22:00,
2013-06-25 09:27:00,87.6,28.8,30.09,NNW,338,2.0,7.0,12,0.00,,,0.00,meteohub,2013-06-25 15:27:00,
2013-06-25 09:32:00,87.4,30.6,30.09,NNW,338,0.0,7.0,13,0.00,,,0.00,meteohub,2013-06-25 15:32:00,
2013-06-25 09:37:00,88.9,29.7,30.09,NNW,329,4.0,7.0,12,0.00,,,0.00,meteohub,2013-06-25 15:37:00,
2013-06-25 09:42:00,90.0,28.4,30.09,WNW,301,11.0,11.0,11,0.00,,,0.00,meteohub,2013-06-25 15:42:00,
2013-06-25 09:47:00,90.0,28.4,30.09,NNW,333,7.0,12.0,11,0.00,,,0.00,meteohub,2013-06-25 15:47:00,
2013-06-25 09:52:00,90.0,28.4,30.09,NW,319,6.0,12.0,11,0.00,,,0.00,meteohub,2013-06-25 15:52:00,
2013-06-25 09:57:00,90.3,28.8,30.09,NW,315,8.0,12.0,11,0.00,,,0.00,meteohub,2013-06-25 15:57:00,
2013-06-25 10:02:00,90.9,26.8,30.09,West,276,9.0,14.0,10,0.00,,,0.00,meteohub,2013-06-25 16:02:00,
2013-06-25 10:07:00,91.2,27.1,30.09,West,277,5.0,14.0,10,0.00,,,0.00,meteohub,2013-06-25 16:07:00,
2013-06-25 10:12:00,91.4,29.5,30.09,NW,311,8.0,14.0,11,0.00,,,0.00,meteohub,2013-06-25 16:12:00,
2013-06-25 10:17:00,91.8,27.5,30.09,WNW,288,6.0,14.0,10,0.00,,,0.00,meteohub,2013-06-25 16:17:00,
2013-06-25 10:22:00,91.9,30.0,30.08,NW,318,8.0,14.0,11,0.00,,,0.00,meteohub,2013-06-25 16:22:00,
2013-06-25 10:27:00,91.9,27.7,30.08,West,260,4.0,13.0,10,0.00,,,0.00,meteohub,2013-06-25 16:27:00,
2013-06-25 10:32:00,91.9,30.0,30.08,WNW,303,9.0,13.0,11,0.00,,,0.00,meteohub,2013-06-25 16:32:00,
2013-06-25 10:37:00,92.1,27.7,30.08,NNW,333,5.0,14.0,10,0.00,,,0.00,meteohub,2013-06-25 16:37:00,
2013-06-25 10:42:00,92.5,28.0,30.09,West,267,8.0,14.0,10,0.00,,,0.00,meteohub,2013-06-25 16:42:00,
2013-06-25 10:47:00,92.8,30.6,30.09,WNW,302,7.0,14.0,11,0.00,,,0.00,meteohub,2013-06-25 16:47:00,
2013-06-25 10:52:00,92.7,28.2,30.09,NNW,338,4.0,14.0,10,0.00,,,0.00,meteohub,2013-06-25 16:52:00,
2013-06-25 10:57:00,93.2,28.6,30.08,West,267,11.0,16.0,10,0.00,,,0.00,meteohub,2013-06-25 16:57:00,
2013-06-25 11:02:00,93.7,28.9,30.09,WSW,246,10.0,16.0,10,0.00,,,0.00,meteohub,2013-06-25 17:02:00,
2013-06-25 11:07:00,94.6,29.7,30.08,West,276,3.0,16.0,10,0.00,,,0.00,meteohub,2013-06-25 17:07:00,
2013-06-25 11:12:00,94.5,29.5,30.08,WNW,298,10.0,16.0,10,0.00,,,0.00,meteohub,2013-06-25 17:12:00,
2013-06-25 11:17:00,94.1,26.6,30.08,West,281,10.0,18.0,9,0.00,,,0.00,meteohub,2013-06-25 17:17:00,
2013-06-25 11:22:00,94.8,27.1,30.08,West,278,9.0,18.0,9,0.00,,,0.00,meteohub,2013-06-25 17:22:00,
2013-06-25 11:27:00,94.8,27.1,30.08,WSW,247,9.0,18.0,9,0.00,,,0.00,meteohub,2013-06-25 17:27:00,
2013-06-25 11:32:00,94.8,27.1,30.08,West,260,6.0,15.0,9,0.00,,,0.00,meteohub,2013-06-25 17:32:00,
2013-06-25 11:37:00,95.4,27.7,30.08,West,281,6.0,15.0,9,0.00,,,0.00,meteohub,2013-06-25 17:37:00,
2013-06-25 11:42:00,95.2,27.5,30.08,WNW,296,4.0,14.0,9,0.00,,,0.00,meteohub,2013-06-25 17:42:00,
2013-06-25 11:47:00,96.1,28.2,30.08,WSW,251,8.0,14.0,9,0.00,,,0.00,meteohub,2013-06-25 17:47:00,
2013-06-25 11:52:00,96.1,28.2,30.08,WNW,294,3.0,14.0,9,0.00,,,0.00,meteohub,2013-06-25 17:52:00,
2013-06-25 11:58:00,96.1,28.2,30.08,WNW,290,10.0,14.0,9,0.00,,,0.00,meteohub,2013-06-25 17:58:00,
2013-06-25 12:04:00,95.5,27.7,30.07,WNW,299,4.0,14.0,9,0.00,,,0.00,meteohub,2013-06-25 18:04:00,
2013-06-25 12:10:00,96.6,28.6,30.08,WNW,294,10.0,14.0,9,0.00,,,0.00,meteohub,2013-06-25 18:10:00,
2013-06-25 12:16:00,95.7,30.4,30.07,NNW,329,6.0,13.0,10,0.00,,,0.00,meteohub,2013-06-25 18:16:00,
2013-06-25 12:22:00,96.1,28.2,30.07,WNW,289,6.0,13.0,9,0.00,,,0.00,meteohub,2013-06-25 18:22:00,
2013-06-25 12:27:00,97.3,29.1,30.07,NW,309,5.0,12.0,9,0.00,,,0.00,meteohub,2013-06-25 18:27:00,
2013-06-25 12:32:00,97.3,29.1,30.07,West,274,10.0,10.0,9,0.00,,,0.00,meteohub,2013-06-25 18:32:00,
2013-06-25 12:37:00,97.7,26.4,30.07,West,274,1.0,11.0,8,0.00,,,0.00,meteohub,2013-06-25 18:37:00,
2013-06-25 12:42:00,96.8,28.8,30.06,NW,306,8.0,13.0,9,0.00,,,0.00,meteohub,2013-06-25 18:42:00,
2013-06-25 12:47:00,98.1,26.8,30.06,West,263,9.0,17.0,8,0.00,,,0.00,meteohub,2013-06-25 18:47:00,
2013-06-25 12:52:00,98.1,29.7,30.06,WSW,252,8.0,17.0,9,0.00,,,0.00,meteohub,2013-06-25 18:52:00,
2013-06-25 12:57:00,98.6,27.1,30.06,NW,310,4.0,17.0,8,0.00,,,0.00,meteohub,2013-06-25 18:57:00,
2013-06-25 13:02:00,98.4,27.0,30.06,WNW,297,12.0,16.0,8,0.00,,,0.00,meteohub,2013-06-25 19:02:00,
2013-06-25 13:07:00,97.9,29.5,30.06,WNW,294,9.0,16.0,9,0.00,,,0.00,meteohub,2013-06-25 19:07:00,
2013-06-25 13:12:00,98.1,29.7,30.06,West,267,13.0,16.0,9,0.00,,,0.00,meteohub,2013-06-25 19:12:00,
2013-06-25 13:17:00,99.3,27.7,30.06,SW,231,13.0,22.0,8,0.00,,,0.00,meteohub,2013-06-25 19:17:00,
2013-06-25 13:22:00,98.8,27.3,30.06,NW,315,7.0,22.0,8,0.00,,,0.00,meteohub,2013-06-25 19:22:00,
2013-06-25 13:27:00,99.3,30.6,30.06,WNW,294,10.0,22.0,9,0.00,,,0.00,meteohub,2013-06-25 19:27:00,
2013-06-25 13:32:00,98.6,30.0,30.06,WNW,294,7.0,15.0,9,0.00,,,0.00,meteohub,2013-06-25 19:32:00,
2013-06-25 13:37:00,99.0,30.4,30.06,SW,225,9.0,15.0,9,0.00,,,0.00,meteohub,2013-06-25 19:37:00,
2013-06-25 13:42:00,100.0,31.1,30.05,SW,216,6.0,15.0,9,0.00,,,0.00,meteohub,2013-06-25 19:42:00,
2013-06-25 13:47:00,100.0,28.2,30.06,West,269,9.0,19.0,8,0.00,,,0.00,meteohub,2013-06-25 19:47:00,
2013-06-25 13:52:00,99.0,30.4,30.05,NNW,327,1.0,19.0,9,0.00,,,0.00,meteohub,2013-06-25 19:52:00,
2013-06-25 13:57:00,99.9,30.9,30.05,NW,315,12.0,19.0,9,0.00,,,0.00,meteohub,2013-06-25 19:57:00,
2013-06-25 14:02:00,99.1,30.4,30.05,NW,312,7.0,19.0,9,0.00,,,0.00,meteohub,2013-06-25 20:02:00,
2013-06-25 14:07:00,100.2,31.3,30.05,WSW,254,5.0,19.0,9,0.00,,,0.00,meteohub,2013-06-25 20:07:00,
2013-06-25 14:12:00,100.9,31.8,30.05,West,276,10.0,19.0,9,0.00,,,0.00,meteohub,2013-06-25 20:12:00,
2013-06-25 14:17:00,100.4,34.0,30.04,WSW,250,8.0,18.0,10,0.00,,,0.00,meteohub,2013-06-25 20:17:00,
2013-06-25 14:23:00,100.2,31.3,30.04,West,261,8.0,17.0,9,0.00,,,0.00,meteohub,2013-06-25 20:23:00,
2013-06-25 14:29:00,100.8,31.6,30.04,SW,220,8.0,17.0,9,0.00,,,0.00,meteohub,2013-06-25 20:29:00,
2013-06-25 14:35:00,101.1,31.8,30.04,SSW,205,6.0,15.0,9,0.00,,,0.00,meteohub,2013-06-25 20:35:00,
2013-06-25 14:41:00,101.5,32.2,30.04,WSW,252,9.0,18.0,9,0.00,,,0.00,meteohub,2013-06-25 20:41:00,
2013-06-25 14:47:00,101.1,34.5,30.04,WSW,238,4.0,18.0,10,0.00,,,0.00,meteohub,2013-06-25 20:47:00,
2013-06-25 14:52:00,101.7,32.4,30.04,West,274,15.0,18.0,9,0.00,,,0.00,meteohub,2013-06-25 20:52:00,
2013-06-25 14:57:00,100.9,31.8,30.04,WSW,238,8.0,18.0,9,0.00,,,0.00,meteohub,2013-06-25 20:57:00,
2013-06-25 15:02:00,101.1,31.8,30.04,SW,215,6.0,18.0,9,0.00,,,0.00,meteohub,2013-06-25 21:02:00,
2013-06-25 15:07:00,100.4,36.3,30.03,SW,216,3.0,15.0,11,0.00,,,0.00,meteohub,2013-06-25 21:07:00,
2013-06-25 15:12:00,101.3,32.0,30.03,West,281,11.0,13.0,9,0.00,,,0.00,meteohub,2013-06-25 21:12:00,
2013-06-25 15:17:00,101.1,34.5,30.03,NW,313,4.0,17.0,10,0.00,,,0.00,meteohub,2013-06-25 21:17:00,
2013-06-25 15:22:00,100.2,33.8,30.03,WNW,287,6.0,17.0,10,0.00,,,0.00,meteohub,2013-06-25 21:22:00,
2013-06-25 15:27:00,100.6,34.2,30.02,SSW,201,7.0,17.0,10,0.00,,,0.00,meteohub,2013-06-25 21:27:00,
2013-06-25 15:32:00,100.2,33.8,30.02,SW,217,4.0,19.0,10,0.00,,,0.00,meteohub,2013-06-25 21:32:00,
2013-06-25 15:37:00,100.6,34.2,30.02,WNW,293,10.0,19.0,10,0.00,,,0.00,meteohub,2013-06-25 21:37:00,
2013-06-25 15:42:00,101.5,34.9,30.02,West,261,9.0,19.0,10,0.00,,,0.00,meteohub,2013-06-25 21:42:00,
2013-06-25 15:47:00,101.1,34.5,30.02,WNW,296,6.0,18.0,10,0.00,,,0.00,meteohub,2013-06-25 21:47:00,
2013-06-25 15:52:00,100.8,34.3,30.01,WNW,286,6.0,18.0,10,0.00,,,0.00,meteohub,2013-06-25 21:52:00,
2013-06-25 15:57:00,100.9,31.8,30.01,WNW,283,10.0,18.0,9,0.00,,,0.00,meteohub,2013-06-25 21:57:00,
2013-06-25 16:02:00,100.9,31.8,30.01,WNW,299,10.0,17.0,9,0.00,,,0.00,meteohub,2013-06-25 22:02:00,
2013-06-25 16:07:00,100.8,31.6,30.01,West,279,5.0,17.0,9,0.00,,,0.00,meteohub,2013-06-25 22:07:00,
2013-06-25 16:12:00,101.1,31.8,30.01,SW,230,7.0,17.0,9,0.00,,,0.00,meteohub,2013-06-25 22:12:00,
2013-06-25 16:17:00,100.8,31.6,30.00,West,279,15.0,17.0,9,0.00,,,0.00,meteohub,2013-06-25 22:17:00,
2013-06-25 16:23:00,100.9,31.8,30.01,WSW,257,13.0,19.0,9,0.00,,,0.00,meteohub,2013-06-25 22:23:00,
2013-06-25 16:29:00,100.9,31.8,30.00,West,276,8.0,21.0,9,0.00,,,0.00,meteohub,2013-06-25 22:29:00,
2013-06-25 16:35:00,100.6,31.5,30.00,West,273,5.0,21.0,9,0.00,,,0.00,meteohub,2013-06-25 22:35:00,
2013-06-25 16:41:00,100.0,31.1,29.99,NNW,327,7.0,15.0,9,0.00,,,0.00,meteohub,2013-06-25 22:41:00,
2013-06-25 16:47:00,100.8,31.6,29.99,NW,313,5.0,15.0,9,0.00,,,0.00,meteohub,2013-06-25 22:47:00,
2013-06-25 16:53:00,101.7,32.4,29.99,WSW,250,7.0,13.0,9,0.00,,,0.00,meteohub,2013-06-25 22:53:00,
2013-06-25 16:59:00,101.5,32.2,29.99,WNW,283,15.0,15.0,9,0.00,,,0.00,meteohub,2013-06-25 22:59:00,
2013-06-25 17:04:00,100.8,31.6,29.99,NW,305,8.0,14.0,9,0.00,,,0.00,meteohub,2013-06-25 23:04:00,
2013-06-25 17:10:00,100.2,31.3,29.98,WNW,298,6.0,18.0,9,0.00,,,0.00,meteohub,2013-06-25 23:10:00,
2013-06-25 17:16:00,100.2,31.3,29.98,SW,232,7.0,18.0,9,0.00,,,0.00,meteohub,2013-06-25 23:16:00,
2013-06-25 17:22:00,100.8,31.6,29.98,West,268,3.0,17.0,9,0.00,,,0.00,meteohub,2013-06-25 23:22:00,
2013-06-25 17:27:00,100.8,31.6,29.98,WSW,249,6.0,12.0,9,0.00,,,0.00,meteohub,2013-06-25 23:27:00,
2013-06-25 17:32:00,100.9,31.8,29.98,West,273,16.0,16.0,9,0.00,,,0.00,meteohub,2013-06-25 23:32:00,
2013-06-25 17:37:00,100.6,31.5,29.98,WNW,290,7.0,19.0,9,0.00,,,0.00,meteohub,2013-06-25 23:37:00,
2013-06-25 17:42:00,100.0,31.1,29.98,West,269,4.0,19.0,9,0.00,,,0.00,meteohub,2013-06-25 23:42:00,
2013-06-25 17:47:00,100.0,31.1,29.98,West,271,10.0,19.0,9,0.00,,,0.00,meteohub,2013-06-25 23:47:00,
2013-06-25 17:52:00,100.2,31.3,29.97,WNW,286,3.0,14.0,9,0.00,,,0.00,meteohub,2013-06-25 23:52:00,
2013-06-25 17:57:00,100.2,31.3,29.97,WNW,284,8.0,14.0,9,0.00,,,0.00,meteohub,2013-06-25 23:57:00,
2013-06-25 18:02:00,100.2,31.3,29.97,WNW,297,10.0,14.0,9,0.00,,,0.00,meteohub,2013-06-26 00:02:00,
2013-06-25 18:07:00,100.0,31.1,29.97,NNW,333,4.0,14.0,9,0.00,,,0.00,meteohub,2013-06-26 00:07:00,
2013-06-25 18:13:00,99.7,30.9,29.97,NW,313,6.0,14.0,9,0.00,,,0.00,meteohub,2013-06-26 00:13:00,
2013-06-25 18:19:00,100.2,31.3,29.97,NNW,331,8.0,13.0,9,0.00,,,0.00,meteohub,2013-06-26 00:19:00,
2013-06-25 18:24:00,100.0,31.1,29.97,WNW,290,7.0,14.0,9,0.00,,,0.00,meteohub,2013-06-26 00:24:00,
2013-06-25 18:30:00,100.0,31.1,29.97,WNW,294,9.0,14.0,9,0.00,,,0.00,meteohub,2013-06-26 00:30:00,
2013-06-25 18:36:00,100.2,31.3,29.97,West,263,10.0,13.0,9,0.00,,,0.00,meteohub,2013-06-26 00:36:00,
2013-06-25 18:42:00,99.7,30.9,29.97,NW,317,1.0,13.0,9,0.00,,,0.00,meteohub,2013-06-26 00:42:00,
2013-06-25 18:47:00,99.3,30.6,29.97,West,263,6.0,13.0,9,0.00,,,0.00,meteohub,2013-06-26 00:47:00,
2013-06-25 18:52:00,99.3,30.6,29.97,NW,320,6.0,16.0,9,0.00,,,0.00,meteohub,2013-06-26 00:52:00,
2013-06-25 18:57:00,99.3,30.6,29.97,West,278,8.0,16.0,9,0.00,,,0.00,meteohub,2013-06-26 00:57:00,
2013-06-25 19:02:00,99.0,30.4,29.97,NW,306,8.0,16.0,9,0.00,,,0.00,meteohub,2013-06-26 01:02:00,
2013-06-25 19:07:00,99.0,30.4,29.98,NW,313,9.0,12.0,9,0.00,,,0.00,meteohub,2013-06-26 01:07:00,
2013-06-25 19:12:00,98.6,30.0,29.97,NW,313,4.0,12.0,9,0.00,,,0.00,meteohub,2013-06-26 01:12:00,
2013-06-25 19:17:00,98.4,29.8,29.97,West,271,5.0,12.0,9,0.00,,,0.00,meteohub,2013-06-26 01:17:00,
2013-06-25 19:22:00,98.2,29.8,29.98,NW,305,3.0,12.0,9,0.00,,,0.00,meteohub,2013-06-26 01:22:00,
2013-06-25 19:27:00,98.2,29.8,29.98,WNW,288,4.0,8.0,9,0.00,,,0.00,meteohub,2013-06-26 01:27:00,
2013-06-25 19:32:00,98.1,29.7,29.97,NW,325,5.0,8.0,9,0.00,,,0.00,meteohub,2013-06-26 01:32:00,
2013-06-25 19:37:00,98.1,29.7,29.98,WNW,284,4.0,8.0,9,0.00,,,0.00,meteohub,2013-06-26 01:37:00,
2013-06-25 19:42:00,97.9,29.5,29.98,NW,306,7.0,7.0,9,0.00,,,0.00,meteohub,2013-06-26 01:42:00,
2013-06-25 19:47:00,97.3,26.2,29.98,NW,323,7.0,11.0,8,0.00,,,0.00,meteohub,2013-06-26 01:47:00,
2013-06-25 19:52:00,97.0,25.9,29.98,NW,319,5.0,12.0,8,0.00,,,0.00,meteohub,2013-06-26 01:52:00,
2013-06-25 19:57:00,96.6,28.6,29.98,WNW,302,9.0,12.0,9,0.00,,,0.00,meteohub,2013-06-26 01:57:00,
2013-06-25 20:02:00,96.4,25.5,29.98,NW,325,4.0,13.0,8,0.00,,,0.00,meteohub,2013-06-26 02:02:00,
2013-06-25 20:07:00,96.1,25.3,29.98,NNW,331,5.0,13.0,8,0.00,,,0.00,meteohub,2013-06-26 02:07:00,
2013-06-25 20:12:00,95.5,25.0,29.98,NW,304,3.0,13.0,8,0.00,,,0.00,meteohub,2013-06-26 02:12:00,
2013-06-25 20:17:00,95.2,24.6,29.98,NW,313,5.0,9.0,8,0.00,,,0.00,meteohub,2013-06-26 02:17:00,
2013-06-25 20:22:00,94.8,24.4,29.99,WNW,297,5.0,9.0,8,0.00,,,0.00,meteohub,2013-06-26 02:22:00,
2013-06-25 20:27:00,94.5,24.1,29.98,WNW,292,4.0,8.0,8,0.00,,,0.00,meteohub,2013-06-26 02:27:00,
2013-06-25 20:32:00,94.3,23.9,29.98,NW,311,5.0,9.0,8,0.00,,,0.00,meteohub,2013-06-26 02:32:00,
2013-06-25 20:37:00,93.9,20.5,29.99,WNW,302,5.0,10.0,7,0.00,,,0.00,meteohub,2013-06-26 02:37:00,
2013-06-25 20:42:00,93.7,20.5,29.99,WNW,298,8.0,10.0,7,0.00,,,0.00,meteohub,2013-06-26 02:42:00,
2013-06-25 20:47:00,93.6,20.3,29.99,NW,307,6.0,10.0,7,0.00,,,0.00,meteohub,2013-06-26 02:47:00,
2013-06-25 20:52:00,93.4,20.1,29.99,NW,305,5.0,10.0,7,0.00,,,0.00,meteohub,2013-06-26 02:52:00,
2013-06-25 20:57:00,93.2,19.9,29.99,NW,310,5.0,10.0,7,0.00,,,0.00,meteohub,2013-06-26 02:57:00,
2013-06-25 21:02:00,93.0,19.9,29.99,WNW,302,5.0,10.0,7,0.00,,,0.00,meteohub,2013-06-26 03:02:00,
2013-06-25 21:07:00,92.7,19.6,29.99,NW,314,4.0,10.0,7,0.00,,,0.00,meteohub,2013-06-26 03:07:00,
2013-06-25 21:12:00,92.3,19.4,29.99,WNW,297,5.0,9.0,7,0.00,,,0.00,meteohub,2013-06-26 03:12:00,
2013-06-25 21:17:00,91.8,19.0,29.99,WNW,302,4.0,8.0,7,0.00,,,0.00,meteohub,2013-06-26 03:17:00,
2013-06-25 21:22:00,91.4,18.7,30.00,WNW,300,6.0,8.0,7,0.00,,,0.00,meteohub,2013-06-26 03:22:00,
2013-06-25 21:27:00,91.0,18.5,30.00,WNW,294,4.0,9.0,7,0.00,,,0.00,meteohub,2013-06-26 03:27:00,
2013-06-25 21:32:00,90.7,18.1,30.00,NW,306,6.0,9.0,7,0.00,,,0.00,meteohub,2013-06-26 03:32:00,
2013-06-25 21:37:00,90.7,18.1,30.00,WNW,295,7.0,9.0,7,0.00,,,0.00,meteohub,2013-06-26 03:37:00,
2013-06-25 21:42:00,90.7,18.1,30.00,WNW,296,8.0,12.0,7,0.00,,,0.00,meteohub,2013-06-26 03:42:00,
2013-06-25 21:47:00,90.9,18.3,30.00,NW,305,8.0,12.0,7,0.00,,,0.00,meteohub,2013-06-26 03:47:00,
2013-06-25 21:52:00,90.9,18.3,30.00,WNW,284,5.0,12.0,7,0.00,,,0.00,meteohub,2013-06-26 03:52:00,
2013-06-25 21:57:00,90.7,14.7,30.01,WNW,292,7.0,11.0,6,0.00,,,0.00,meteohub,2013-06-26 03:57:00,
2013-06-25 22:01:00,90.3,14.4,30.01,West,277,5.0,11.0,6,0.00,,,0.00,meteohub,2013-06-26 04:01:00,
2013-06-25 22:02:00,90.3,14.4,30.01,WNW,291,3.0,11.0,6,0.00,,,0.00,meteohub,2013-06-26 04:02:00,
2013-06-25 22:06:00,90.0,14.2,30.01,WNW,298,6.0,10.0,6,0.00,,,0.00,meteohub,2013-06-26 04:06:00,
2013-06-25 22:12:00,89.6,17.4,30.01,West,274,4.0,10.0,7,0.00,,,0.00,meteohub,2013-06-26 04:12:00,
2013-06-25 22:17:00,89.1,17.1,30.01,West,271,7.0,9.0,7,0.00,,,0.00,meteohub,2013-06-26 04:17:00,
2013-06-25 22:22:00,88.3,16.5,30.01,West,264,8.0,9.0,7,0.00,,,0.00,meteohub,2013-06-26 04:22:00,
2013-06-25 22:27:00,87.8,16.2,30.01,West,271,8.0,10.0,7,0.00,,,0.00,meteohub,2013-06-26 04:27:00,
2013-06-25 22:32:00,87.3,15.6,30.01,West,267,6.0,10.0,7,0.00,,,0.00,meteohub,2013-06-26 04:32:00,
2013-06-25 22:37:00,86.7,15.3,30.01,West,263,7.0,9.0,7,0.00,,,0.00,meteohub,2013-06-26 04:37:00,
2013-06-25 22:42:00,86.5,15.3,30.01,SW,236,6.0,9.0,7,0.00,,,0.00,meteohub,2013-06-26 04:42:00,
2013-06-25 22:47:00,86.4,15.1,30.01,West,265,5.0,10.0,7,0.00,,,0.00,meteohub,2013-06-26 04:47:00,
2013-06-25 22:52:00,86.4,15.1,30.01,West,281,8.0,10.0,7,0.00,,,0.00,meteohub,2013-06-26 04:52:00,
2013-06-25 22:57:00,86.4,15.1,30.01,West,265,7.0,10.0,7,0.00,,,0.00,meteohub,2013-06-26 04:57:00,
2013-06-25 23:02:00,86.5,11.7,30.01,WNW,294,5.0,10.0,6,0.00,,,0.00,meteohub,2013-06-26 05:02:00,
2013-06-25 23:07:00,86.5,11.7,30.01,West,274,7.0,10.0,6,0.00,,,0.00,meteohub,2013-06-26 05:07:00,
2013-06-25 23:12:00,86.5,11.7,30.01,West,269,11.0,11.0,6,0.00,,,0.00,meteohub,2013-06-26 05:12:00,
2013-06-25 23:17:00,86.4,11.5,30.01,West,275,8.0,12.0,6,0.00,,,0.00,meteohub,2013-06-26 05:17:00,
2013-06-25 23:22:00,86.2,11.5,30.02,WNW,288,4.0,12.0,6,0.00,,,0.00,meteohub,2013-06-26 05:22:00,
2013-06-25 23:27:00,85.8,14.7,30.02,NW,309,1.0,12.0,7,0.00,,,0.00,meteohub,2013-06-26 05:27:00,
2013-06-25 23:32:00,85.6,14.5,30.02,NW,313,2.0,9.0,7,0.00,,,0.00,meteohub,2013-06-26 05:32:00,
2013-06-25 23:37:00,84.4,21.9,30.03,NNE,24,0.0,8.0,10,0.00,,,0.00,meteohub,2013-06-26 05:37:00,
2013-06-25 23:42:00,82.9,20.8,30.03,NNE,24,1.0,6.0,10,0.00,,,0.00,meteohub,2013-06-26 05:42:00,
2013-06-25 23:47:00,82.6,20.5,30.03,NNE,24,0.0,3.0,10,0.00,,,0.00,meteohub,2013-06-26 05:47:00,
2013-06-25 23:52:00,82.0,20.1,30.03,NNE,24,2.0,2.0,10,0.00,,,0.00,meteohub,2013-06-26 05:52:00,
2013-06-25 23:57:00,81.9,19.9,30.04,NNE,21,2.0,3.0,10,0.00,,,0.00,meteohub,2013-06-26 05:57:00,